Carmi, IL

11:22 PM CDT on May 29, 2017 (GMT -0500)
Carmi Municipal

Weather History for KCUL - December, 2011

Change the Weather History Date:

Thursday, December 29, 2011

  Actual Average (KEHR) Record (KEHR)
Temperature  
Mean Temperature 44 °F -  
Max Temperature 56 °F 41 °F 71 °F (1984)
Min Temperature 32 °F 27 °F -2 °F (1935)
Degree Days  
Heating Degree Days 21    
Moisture  
Dew Point 36 °F    
Average Humidity 71    
Maximum Humidity 96    
Minimum Humidity 50    
Precipitation  
Precipitation 0.00 in - - ()
Sea Level Pressure  
Sea Level Pressure 29.84 in    
Wind  
Wind Speed 12 mph (SSW)    
Max Wind Speed 21 mph    
Max Gust Speed 30 mph    
Visibility 10 miles    
Events      
Averages and records for this station are not official NWS values.
T = Trace of Precipitation, MM = Missing Value Source: NWS Daily Summary

Daily Weather History Graph

Daily Weather History Graph

Search for Another Location

Airport or City:

Trip Planner

Search our weather history database for the weather conditions in past years. The results will help you decide how hot, cold, wet, or windy it might be!

Date:

Astronomy

Dec. 29, 2011 Rise Set
Actual Time 7:08 AM CST 4:40 PM CST
Civil Twilight 6:38 AM CST 5:10 PM CST
Nautical Twilight 6:05 AM CST 5:43 PM CST
Astronomical Twilight 5:33 AM CST 6:15 PM CST
Moon 10:06 AM CST (12/29) 10:11 PM CST (12/29)
Length of Visible Light 10h 31m
Length of Day
9h 32m
Waxing Crescent, 27% of the Moon is Illuminated
Dec 29
Waxing Crescent
Jan 1
First Quarter
Jan 9
Full
Jan 16
Last Quarter
Jan 23
New

Hourly Weather History & Observations

Time (CST) Temp. Windchill Dew Point Humidity Pressure Visibility Wind Dir Wind Speed Gust Speed Precip Events Conditions
12:15 AM 32.2 °F 25.8 °F 31.1 °F 96% 29.96 in 10.0 mi SSE 6.9 mph - N/A   Clear
12:35 AM 32.4 °F 25.3 °F 31.5 °F 96% 29.95 in 10.0 mi South 8.1 mph - N/A   Clear
12:55 AM 33.1 °F 26.9 °F 32.0 °F 96% 29.94 in 10.0 mi South 6.9 mph - N/A   Clear
1:15 AM 33.6 °F 27.5 °F 32.0 °F 94% 29.93 in 10.0 mi South 6.9 mph - N/A   Clear
1:35 AM 34.9 °F 27.7 °F 32.5 °F 91% 29.94 in 10.0 mi South 9.2 mph - N/A   Clear
1:55 AM 36.9 °F 29.6 °F 32.9 °F 86% 29.94 in 10.0 mi SSW 10.4 mph - N/A   Clear
2:35 AM 37.6 °F 29.6 °F 32.9 °F 83% 29.93 in 10.0 mi SSW 12.7 mph - N/A   Clear
2:55 AM 37.8 °F 30.2 °F 32.9 °F 83% 29.92 in 10.0 mi SSW 11.5 mph - N/A   Clear
3:15 AM 36.9 °F 30.7 °F 32.9 °F 86% 29.90 in 10.0 mi South 8.1 mph - N/A   Clear
3:35 AM 37.4 °F 30.3 °F 32.9 °F 84% 29.91 in 10.0 mi SSW 10.4 mph - N/A   Clear
3:55 AM 37.9 °F 30.0 °F 33.1 °F 83% 29.89 in 10.0 mi SSW 12.7 mph - N/A   Clear
4:35 AM 39.2 °F 31.6 °F 33.3 °F 79% 29.88 in 10.0 mi SSW 12.7 mph - N/A   Scattered Clouds
5:15 AM 40.1 °F 32.0 °F 33.6 °F 78% 29.88 in 10.0 mi SSW 15.0 mph - N/A   Scattered Clouds
5:35 AM 39.7 °F 32.7 °F 33.8 °F 79% 29.87 in 10.0 mi SSW 11.5 mph - N/A   Mostly Cloudy
5:55 AM 39.7 °F 31.9 °F 33.8 °F 79% 29.87 in 10.0 mi SSW 13.8 mph - N/A   Overcast
6:15 AM 39.2 °F 32.0 °F 33.8 °F 81% 29.86 in 10.0 mi SSW 11.5 mph - N/A   Overcast
6:35 AM 39.4 °F 32.7 °F 33.8 °F 80% 29.87 in 10.0 mi SSW 10.4 mph - N/A   Overcast
7:15 AM 39.0 °F 32.3 °F 34.0 °F 82% 29.87 in 10.0 mi South 10.4 mph - N/A   Overcast
7:35 AM 39.0 °F 32.3 °F 34.0 °F 82% 29.87 in 10.0 mi South 10.4 mph - N/A   Overcast
7:55 AM 39.2 °F 33.0 °F 34.5 °F 83% 29.87 in 10.0 mi South 9.2 mph - N/A   Overcast
8:15 AM 40.3 °F 33.0 °F 34.7 °F 80% 29.87 in 10.0 mi South 12.7 mph - N/A   Overcast
8:35 AM 41.4 °F 34.0 °F 34.7 °F 77% 29.87 in 10.0 mi SSW 13.8 mph - N/A   Mostly Cloudy
9:15 AM 43.0 °F 35.7 °F 34.9 °F 73% 29.85 in 10.0 mi South 15.0 mph - N/A   Mostly Cloudy
9:35 AM 44.6 °F 37.8 °F 36.0 °F 72% 29.85 in 10.0 mi SSW 15.0 mph 19.6 mph N/A   Scattered Clouds
9:55 AM 46.4 °F 40.1 °F 36.1 °F 67% 29.85 in 10.0 mi SSW 15.0 mph 23.0 mph N/A   Clear
10:15 AM 47.3 °F - 36.1 °F 65% 29.85 in 10.0 mi SSW 16.1 mph 20.7 mph N/A   Clear
10:35 AM 48.7 °F - 36.9 °F 64% 29.84 in 10.0 mi SSW 19.6 mph 25.3 mph N/A   Scattered Clouds
11:15 AM 50.4 °F - 37.6 °F 62% 29.82 in 10.0 mi SSW 17.3 mph 25.3 mph N/A   Clear
11:35 AM 50.4 °F - 36.7 °F 59% 29.81 in 10.0 mi SSW 18.4 mph 21.9 mph N/A   Clear
11:55 AM 51.1 °F - 37.4 °F 60% 29.79 in 10.0 mi SSW 16.1 mph 24.2 mph N/A   Clear
12:15 PM 52.3 °F - 37.8 °F 58% 29.77 in 10.0 mi SSW 18.4 mph 24.2 mph N/A   Clear
12:55 PM 54.5 °F - 37.2 °F 52% 29.75 in 10.0 mi SSW 20.7 mph 26.5 mph N/A   Clear
1:15 PM 54.7 °F - 36.5 °F 50% 29.75 in 10.0 mi SSW 20.7 mph 26.5 mph N/A   Clear
1:55 PM 56.1 °F - 38.5 °F 52% 29.74 in 10.0 mi SW 13.8 mph - N/A   Clear
2:55 PM 56.3 °F - 38.5 °F 51% 29.75 in 10.0 mi SW 19.6 mph 25.3 mph N/A   Clear
3:15 PM 55.8 °F - 37.4 °F 50% 29.76 in 10.0 mi SW 18.4 mph 29.9 mph N/A   Clear
3:35 PM 54.5 °F - 37.6 °F 53% 29.76 in 10.0 mi SW 17.3 mph 27.6 mph N/A   Clear
4:15 PM 53.6 °F - 37.0 °F 53% 29.77 in 10.0 mi SW 13.8 mph - N/A   Clear
4:35 PM 52.2 °F - 38.1 °F 59% 29.78 in 10.0 mi SSW 11.5 mph - N/A   Clear
4:55 PM 51.8 °F - 38.5 °F 60% 29.78 in 10.0 mi SSW 11.5 mph 17.3 mph N/A   Clear
5:15 PM 51.8 °F - 38.5 °F 60% 29.79 in 10.0 mi SSW 16.1 mph 23.0 mph N/A   Clear
5:35 PM 50.9 °F - 38.7 °F 63% 29.79 in 10.0 mi SSW 10.4 mph - N/A   Clear
5:55 PM 50.4 °F - 39.0 °F 65% 29.80 in 10.0 mi SSW 13.8 mph 18.4 mph N/A   Clear
6:15 PM 50.9 °F - 39.2 °F 64% 29.80 in 10.0 mi SSW 16.1 mph - N/A   Clear
6:35 PM 50.5 °F - 39.2 °F 65% 29.80 in 10.0 mi SSW 17.3 mph 24.2 mph N/A   Clear
6:55 PM 50.0 °F - 39.4 °F 67% 29.80 in 10.0 mi SSW 15.0 mph 20.7 mph N/A   Clear
7:15 PM 49.8 °F - 39.2 °F 67% 29.81 in 10.0 mi SSW 18.4 mph 23.0 mph N/A   Clear
7:55 PM 49.8 °F - 39.7 °F 68% 29.81 in 10.0 mi SSW 16.1 mph 20.7 mph N/A   Clear
8:15 PM 50.0 °F - 40.3 °F 69% 29.82 in 10.0 mi SSW 16.1 mph 23.0 mph N/A   Clear
8:35 PM 49.8 °F - 40.5 °F 70% 29.83 in 10.0 mi SSW 15.0 mph 23.0 mph N/A   Clear
8:55 PM 49.8 °F - 40.5 °F 70% 29.82 in 10.0 mi SSW 13.8 mph 18.4 mph N/A   Clear
9:15 PM 50.2 °F - 40.6 °F 70% 29.82 in 10.0 mi SSW 13.8 mph 17.3 mph N/A   Clear
9:35 PM 50.2 °F - 40.6 °F 70% 29.82 in 10.0 mi SSW 12.7 mph - N/A   Scattered Clouds
9:55 PM 50.0 °F - 41.0 °F 71% 29.81 in 10.0 mi SSW 12.7 mph - N/A   Mostly Cloudy
10:15 PM 50.0 °F - 41.0 °F 71% 29.82 in 10.0 mi South 11.5 mph - N/A   Scattered Clouds
10:35 PM 50.2 °F - 40.6 °F 70% 29.82 in 10.0 mi SSW 12.7 mph 20.7 mph N/A   Scattered Clouds
11:15 PM 50.0 °F - 41.4 °F 72% 29.82 in 10.0 mi SSW 13.8 mph - N/A   Overcast
11:35 PM 50.0 °F - 41.9 °F 74% 29.81 in 10.0 mi South 12.7 mph - N/A   Overcast
11:55 PM 49.5 °F - 42.3 °F 76% 29.81 in 10.0 mi South 12.7 mph - N/A   Overcast